Location: Auttagershofen
(48.1940°N, 10.0237°E)
Time: 00:02:48
(UTC+00:00)

Lacrosse 4 Rocket - Pass Details

Date: 18 January 2026
Orbit: 512 x 564 km, 68.0° (Epoch: 16 February)

Event Time Altitude Azimuth Distance (km) Brightness Sun altitude
Exits shadow 04:57:18 - 198° (SSW) 2,391 4.5 -20.5°
Reaches altitude 10° 04:58:52 10° 194° (SSW) 1,759 3.8 -20.3°
Maximum altitude 05:02:41 53° 118° (ESE) 648 2.0 -19.7°
Drops below altitude 10° 05:06:29 10° 41° (NE) 1,752 4.3 -19.0°
Sets 05:08:40 0° 37° (NE) 2,639 5.2 -18.7°
